Regional Weather Roundup
Issued by NWS

Home | Current Version | Previous Version | Graphics & Text | Print | Product List | Glossary On
Versions: 1 2 3 4 5 6 7 8 9 10 11 12 13 14 15 16 17 18 19 20 21 22 23 24 25 26 27 28 29 30 31 32 33 34 35 36 37 38 39 40 41 42 43 44 45 46 47 48 49 50
828
ASUS45 KABQ 230701
RWRNM
NEW MEXICO REGIONAL WEATHER ROUNDUP
NATIONAL WEATHER SERVICE ALBUQUERQUE NM
100 AM MDT FRI JUN 23 2017

NOTE: "FAIR" MEANS FEW OR NO CLOUDS BELOW 12,000 FEET AGL WITH NO
       SIGNIFICANT WEATHER OR OBSTRUCTIONS TO VISION.

      THIS PRODUCT IS RELEASED AS TWO VERSIONS.  ONE VERSION NEAR
      THE TOP OF THE HOUR CONTAINING PRELIMINARY DATA FROM ALBUQUERQUE
      AND OTHER STATIONS.  A FINAL VERSION WITH ADDITIONAL DATA IS
      ISSUED ABOUT 10 MINUTES AFTER THE HOUR.

NMZ501-503-504-510>518-230800-
NORTHWEST PLATEAU/NORTHCENTRAL MOUNTAINS

CITY           SKY/WX    TMP DP  RH WIND       PRES   REMARKS
FARMINGTON     FAIR      68  21  16 NE8       29.98R
LOS ALAMOS     FAIR      75  18  11 W14       30.12S
SANTA FE       FAIR      67  21  17 NE8       30.02F
TAOS           FAIR      66  36  32 E9G16     30.15R
ANGEL FIRE     FAIR      46  39  76 S3        30.31R

$$
NMZ402-403-502-505>509-230800-
WESTCENTRAL MOUNTAINS/SOUTHWEST MOUNTAINS

CITY           SKY/WX    TMP DP  RH WIND       PRES   REMARKS
GALLUP         FAIR      60  23  24 S5        30.11R
GRANTS         FAIR      63  18  17 NW6       30.12R
SILVER CITY    FAIR      81  37  20 NW14      30.00S

$$
NMZ407-409-411-412-230800-
SOUTHERN DESERTS

CITY           SKY/WX    TMP DP  RH WIND       PRES   REMARKS
DEMING         FAIR      88  39  17 W13       29.89S
LAS CRUCES     FAIR      97  32  10 W9G17     29.88S
HOLLOMAN AFB   FAIR      91  39  16 S7        29.84F
ALAMOGORDO     FAIR      86  36  16 CALM      29.84F
T OR C         FAIR      86  30  13 NW14      29.90F

$$
NMZ519>523-230800-
CENTRAL VALLEYS/CENTRAL HIGHLANDS

CITY           SKY/WX    TMP DP  RH WIND       PRES   REMARKS
ALBUQUERQUE    FAIR      83  22  10 N6        29.95S
DOUBLE EAGLE   FAIR      75  19  12 NW10      30.00S
MORIARTY ARPT  FAIR      60  34  38 N5        30.05S
CLINES CORNERS FAIR      70  35  27 NE20      30.13R
BELEN          FAIR      75  19  12 CALM      29.95S
SOCORRO        FAIR      87  26  11 NW15G25   29.92R

$$
NMZ524>526-539-540-230800-
SOUTHCENTRAL MOUNTAINS

CITY           SKY/WX    TMP DP  RH WIND       PRES   REMARKS
RUIDOSO        FAIR      77  34  20 W6        30.11F

$$
NMZ527>531-230800-
NORTHEAST HIGHLANDS/NORTHEAST PLAINS

CITY           SKY/WX    TMP DP  RH WIND       PRES   REMARKS
LAS VEGAS      FAIR      63  48  58 N17       30.16R
RATON          FAIR      65  49  56 NW3       30.13R
CLAYTON        FAIR      64  56  75 N10       30.00F

$$
NMZ532>537-230800-
EASTCENTRAL PLAINS

CITY           SKY/WX    TMP DP  RH WIND       PRES   REMARKS
TUCUMCARI      FAIR      74  60  61 NE13      29.87S
CANNON AFB     CLOUDY    73  59  61 NE9       29.89R
CLOVIS AIRPORT FAIR      70  62  76 E7        29.89R

$$
NMZ028-029-538-230800-
SOUTHEAST PLAINS

CITY           SKY/WX    TMP DP  RH WIND       PRES   REMARKS
ROSWELL        FAIR      86  49  27 S16       29.80R
ARTESIA        FAIR      88  50  27 S17G23    29.80F
CARLSBAD       FAIR      89  52  28 W14       29.80R
HOBBS          FAIR      81  46  30 S9        29.82F


$$




USA.gov is the U.S. government's official web portal to all federal, state and local government web resources and services.